This demonstration page uses our WeatherBlox Daily Observations layout. Learn more.

Left ArrowRight Arrow

39.51506, -84.39828

Hourly Observations for May 12, 2017

Temp ( °F °C ) Dew Point ( °F °C ) Humidity (%) Winds ( mph kmh ) Pressure ( in mb ) Visibility ( mi km ) Precip ( " mm )
12:15 am 00:15 Cloudy 57 13.8 42 5.7 58 58 NNE 10 17 29.91 1013 10 16 N/A
12:35 am 00:35 Cloudy 57 13.8 42 5.5 58 58 NNE 8 13 29.94 1014 10 16 N/A
12:55 am 00:55 Cloudy 57 13.8 43 6.2 60 60 N 3 6 29.94 1014 10 16 N/A
1:15 am 01:15 Cloudy 57 13.8 43 6.3 61 61 N 6 9 29.94 1014 10 16 N/A
1:35 am 01:35 Cloudy 57 13.7 43 6.3 61 61 N 6 9 29.94 1014 10 16 N/A
1:55 am 01:55 Cloudy 55 12.5 41 5.1 61 61 N 3 6 29.91 1013 10 16 N/A
2:15 am 02:15 Cloudy 55 12.5 42 5.6 63 63 N 3 6 29.91 1013 10 16 N/A
2:35 am 02:35 Partly Cloudy 55 12.5 42 5.8 64 64 N N/A 29.91 1013 10 16 N/A
2:55 am 02:55 Mostly Cloudy 55 12.5 44 6.5 67 67 N N/A 29.91 1013 10 16 N/A
3:15 am 03:15 Cloudy 55 12.5 47 8.2 75 75 N N/A 29.91 1013 10 16 N/A
3:35 am 03:35 Mostly Cloudy 52 11 44 6.5 74 74 N 6 9 29.91 1013 10 16 N/A
3:55 am 03:55 Clear 52 11 45 7 77 77 N N/A 29.88 1012 10 16 N/A
4:15 am 04:15 Partly Cloudy 52 11 44 6.9 76 76 N N/A 29.91 1013 10 16 N/A
4:35 am 04:35 Mostly Cloudy 52 11 44 6.6 75 75 N 3 6 29.91 1013 10 16 N/A
4:55 am 04:55 Mostly Cloudy 52 11 44 6.7 75 75 N 3 6 29.91 1013 10 16 N/A
5:15 am 05:15 Cloudy 52 11 44 6.5 74 74 N N/A 29.91 1013 10 16 N/A
5:35 am 05:35 Cloudy 52 11 44 6.6 75 75 N 3 6 29.91 1013 10 16 N/A
5:55 am 05:55 Cloudy 55 12.5 46 7.6 72 72 N 3 6 29.91 1013 10 16 N/A
6:15 am 06:15 Cloudy 55 12.5 44 6.9 69 69 N 7 11 29.91 1013 10 16 N/A
6:35 am 06:35 Cloudy 55 12.5 44 6.6 68 68 NNE 5 7 29.91 1013 10 16 N/A
6:55 am 06:55 Cloudy 55 12.5 44 6.6 68 68 N 3 6 29.91 1013 10 16 N/A
7:15 am 07:15 Cloudy 55 12.5 44 6.7 68 68 N 5 7 29.91 1013 10 16 N/A
7:35 am 07:35 Cloudy 55 12.5 44 6.8 68 68 N 5 7 29.91 1013 10 16 N/A
7:55 am 07:55 Cloudy 55 12.5 44 6.7 68 68 N 7 11 29.91 1013 10 16 N/A
8:15 am 08:15 Cloudy 55 12.5 44 6.7 68 68 N 6 9 29.91 1013 10 16 N/A
8:35 am 08:35 Cloudy 55 12.5 44 6.7 68 68 N 6 9 29.91 1013 10 16 N/A
8:55 am 08:55 Cloudy 55 12.5 44 6.9 69 69 N 6 9 29.91 1013 10 16 N/A
9:15 am 09:15 Cloudy 55 12.5 45 7.1 70 70 N 6 9 29.91 1013 10 16 N/A
9:35 am 09:35 Cloudy 55 12.5 45 7 69 69 N 8 13 29.91 1013 10 16 N/A
9:55 am 09:55 Cloudy 55 12.5 44 6.9 69 69 N 5 7 29.91 1013 10 16 N/A
10:15 am 10:15 Cloudy 56 13.1 46 7.7 70 70 N 8 13 29.91 1013 10 16 N/A
10:35 am 10:35 Cloudy 57 13.8 47 8.1 69 69 NNE 8 13 29.91 1013 10 16 N/A
10:55 am 10:55 Cloudy 57 13.8 47 8.2 69 69 NNE 7 11 29.91 1013 10 16 N/A
11:15 am 11:15 Cloudy 57 13.8 46 8 68 68 NNE 10 17 29.91 1013 10 16 N/A
11:35 am 11:35 Cloudy 57 14.1 47 8.3 68 68 NNE 8 13 29.91 1013 10 16 N/A
11:55 am 11:55 Cloudy 60 15.3 49 9.4 68 68 N 9 15 29.88 1012 10 16 N/A
12:15 pm 12:15 Cloudy 60 15.3 49 9.2 67 67 NNE 8 13 29.88 1012 10 16 N/A
12:35 pm 12:35 Cloudy 60 15.3 48 9 66 66 NNE 6 9 29.88 1012 10 16 N/A
12:55 pm 12:55 Cloudy 60 15.3 48 8.9 66 66 NNE 5 7 29.88 1012 10 16 N/A
1:15 pm 13:15 Cloudy 61 16 48 9.1 64 64 NE 8 13 29.88 1012 10 16 N/A
1:35 pm 13:35 Cloudy 62 16.4 49 9.4 63 63 N 7 11 29.88 1012 10 16 N/A
1:55 pm 13:55 Cloudy 62 16.6 49 9.3 62 62 N 7 11 29.88 1012 10 16 N/A
2:15 pm 14:15 Cloudy 62 16.7 48 9.1 61 61 NNE 7 11 29.88 1012 10 16 N/A
2:35 pm 14:35 Cloudy 63 17 49 9.3 61 61 NNE 5 7 29.88 1012 10 16 N/A
2:55 pm 14:55 Cloudy 63 17 48 9.1 60 60 N N/A 29.88 1012 10 16 N/A
3:15 pm 15:15 Mostly Cloudy 64 18 49 9.6 58 58 N 8 13 29.85 1011 10 16 N/A
3:35 pm 15:35 Cloudy 64 18 50 10.1 60 60 N 7 11 29.85 1011 10 16 N/A
3:55 pm 15:55 Cloudy 64 18 49 9.6 58 58 NNE 5 7 29.85 1011 10 16 N/A
4:15 pm 16:15 Mostly Cloudy 68 20.1 51 10.8 55 55 N 8 13 29.85 1011 10 16 N/A
4:35 pm 16:35 Mostly Cloudy 66 18.8 49 9.7 56 56 NNE 6 9 29.85 1011 10 16 N/A
4:55 pm 16:55 Cloudy 67 19.5 49 9.4 52 52 N 6 9 29.83 1010 10 16 N/A
5:15 pm 17:15 Cloudy 67 19.5 49 9.2 52 52 NNE 7 11 29.83 1010 10 16 N/A
5:35 pm 17:35 Cloudy 67 19.5 49 9.4 52 52 NNE 7 11 29.83 1010 10 16 N/A
5:55 pm 17:55 Cloudy 67 19.5 46 7.8 47 47 N 10 17 29.85 1011 10 16 N/A
6:15 pm 18:15 Mostly Cloudy 69 20.8 48 9.1 47 47 N 9 15 29.85 1011 10 16 N/A
6:30 pm 18:30 Partly Cloudy 67 19.5 47 8.3 49 49 NNE 10 17 29.85 1011 10 16 N/A
6:55 pm 18:55 Sunny 69 20.7 48 8.7 46 46 N 10 17 29.85 1011 10 16 N/A
7:15 pm 19:15 Sunny 67 19.6 46 7.9 47 47 N 9 15 29.85 1011 10 16 N/A
7:35 pm 19:35 Sunny 67 19.5 46 7.7 47 47 N 9 15 29.85 1011 10 16 N/A
7:55 pm 19:55 Sunny 64 18 44 6.9 48 48 N 3 6 29.85 1011 10 16 N/A
8:15 pm 20:15 Sunny 63 17.1 44 6.8 51 51 N 6 9 29.85 1011 10 16 N/A
8:35 pm 20:35 Sunny 62 16.6 44 6.7 52 52 N 7 11 29.85 1011 10 16 N/A
8:55 pm 20:55 Clear 61 15.9 44 6.7 55 55 N 6 9 29.85 1011 10 16 N/A
9:15 pm 21:15 Clear 60 15.4 44 6.5 56 56 N 7 11 29.88 1012 10 16 N/A
9:35 pm 21:35 Clear 60 15.3 45 7.1 58 58 N 5 7 29.88 1012 10 16 N/A
9:55 pm 21:55 Clear 60 15.3 46 7.5 60 60 N 5 7 29.88 1012 10 16 N/A
10:15 pm 22:15 Clear 57 13.8 44 6.7 62 62 N 5 7 29.91 1013 10 16 N/A
10:35 pm 22:35 Clear 57 13.8 46 7.6 66 66 N 3 6 29.91 1013 10 16 N/A
10:55 pm 22:55 Clear 55 12.5 45 7 69 69 N 3 6 29.91 1013 10 16 N/A
11:15 pm 23:15 Clear 55 12.5 46 7.6 72 72 N N/A 29.91 1013 10 16 N/A
11:35 pm 23:35 Clear 55 12.5 45 7.2 70 70 N 3 6 29.91 1013 10 16 N/A
11:55 pm 23:55 Clear 55 12.5 46 7.7 73 73 N 3 6 29.91 1013 10 16 N/A

Powered by AerisWeather